Orangeburg, SC

10:49 PM EST on December 09, 2016 (GMT -0500)
Orangeburg Municipal

Weather History for KOGB - February, 2013

Change the Weather History Date:

Tuesday, February 12, 2013

  Actual Average Record
Temperature  
Mean Temperature 59 °F 49 °F  
Max Temperature 66 °F 60 °F 78 °F (1965)
Min Temperature 51 °F 38 °F 9 °F (1973)
Degree Days  
Heating Degree Days 6 16  
Month to date heating degree days 172 204  
Since 1 July heating degree days 1357 1701  
Cooling Degree Days 0 0  
Month to date cooling degree days 0 0  
Year to date cooling degree days 20 1  
Growing Degree Days 8 (Base 50)    
Moisture  
Dew Point 51 °F    
Average Humidity 83    
Maximum Humidity 93    
Minimum Humidity 42    
Precipitation  
Precipitation 1.11 in 0.12 in 1.22 in (2004)
Month to date precipitation 4.70 1.25  
Year to date precipitation 5.54 5.23  
Sea Level Pressure  
Sea Level Pressure 30.01 in    
Wind  
Wind Speed 4 mph (WSW)    
Max Wind Speed 10 mph    
Max Gust Speed 16 mph    
Visibility 8 miles    
Events Rain    
T = Trace of Precipitation, MM = Missing Value Source: NWS Daily Summary

Daily Weather History Graph

Daily Weather History Graph

Search for Another Location

Airport or City:

Trip Planner

Search our weather history database for the weather conditions in past years. The results will help you decide how hot, cold, wet, or windy it might be!

Date:

Astronomy

Feb. 12, 2013 Rise Set
Actual Time 7:10 AM EST 6:05 PM EST
Civil Twilight 6:44 AM EST 6:31 PM EST
Nautical Twilight 6:15 AM EST 7:00 PM EST
Astronomical Twilight 5:46 AM EST 7:29 PM EST
Moon 8:17 AM EST (2/12) 8:52 PM EST (2/12)
Length of Visible Light 11h 46m
Length of Day
10h 55m
Waxing Crescent, 7% of the Moon is Illuminated
Feb 12
Waxing Crescent
Feb 17
First Quarter
Feb 25
Full
Mar 4
Last Quarter
Mar 11
New

Hourly Weather History & Observations

Time (EST) Temp. Dew Point Humidity Pressure Visibility Wind Dir Wind Speed Gust Speed Precip Events Conditions
12:38 AM 57.2 °F 55.4 °F 94% 30.09 in 4.0 mi West 6.9 mph - 0.11 in Rain Rain
12:53 AM 57.0 °F 55.0 °F 93% 30.09 in 5.0 mi West 8.1 mph - 0.15 in Rain Rain
1:53 AM 57.0 °F 55.0 °F 93% 30.06 in 10.0 mi WSW 4.6 mph - 0.07 in   Overcast
2:11 AM 57.2 °F 55.4 °F 94% 30.06 in 10.0 mi SW 5.8 mph - N/A   Overcast
2:20 AM 57.2 °F 55.4 °F 94% 30.06 in 10.0 mi SW 5.8 mph - N/A   Overcast
2:53 AM 57.0 °F 55.0 °F 93% 30.05 in 10.0 mi WSW 6.9 mph - 0.00 in Rain Light Rain
3:19 AM 57.2 °F 55.4 °F 94% 30.04 in 8.0 mi WSW 4.6 mph - 0.01 in Rain Light Rain
3:53 AM 57.0 °F 55.0 °F 93% 30.04 in 10.0 mi West 5.8 mph - 0.03 in   Overcast
4:28 AM 55.4 °F 53.6 °F 94% 30.04 in 10.0 mi West 5.8 mph - 0.00 in   Overcast
4:53 AM 55.9 °F 54.0 °F 93% 30.04 in 10.0 mi West 6.9 mph - 0.00 in   Overcast
5:07 AM 55.4 °F 53.6 °F 94% 30.04 in 10.0 mi SW 4.6 mph - N/A   Overcast
5:53 AM 55.9 °F 53.1 °F 90% 30.05 in 10.0 mi West 4.6 mph - 0.00 in   Overcast
6:53 AM 55.0 °F 51.1 °F 86% 30.06 in 10.0 mi WSW 3.5 mph - 0.02 in   Overcast
7:53 AM 54.0 °F 52.0 °F 93% 30.08 in 10.0 mi Calm Calm - 0.00 in   Overcast
8:53 AM 54.0 °F 51.1 °F 90% 30.12 in 5.0 mi West 6.9 mph - 0.05 in Rain Light Rain
9:53 AM 53.1 °F 48.9 °F 86% 30.13 in 5.0 mi West 5.8 mph - 0.06 in Rain Rain
10:53 AM 55.9 °F 48.9 °F 77% 30.10 in 10.0 mi SW 5.8 mph - 0.01 in   Overcast
11:53 AM 59.0 °F 48.9 °F 69% 30.07 in 10.0 mi Calm Calm - N/A   Partly Cloudy
12:53 PM 63.0 °F 44.1 °F 50% 30.05 in 10.0 mi NNW 8.1 mph - N/A   Mostly Cloudy
1:53 PM 64.0 °F 43.0 °F 46% 30.01 in 10.0 mi NE 3.5 mph - N/A   Overcast
2:53 PM 66.0 °F 43.0 °F 43% 30.00 in 10.0 mi Calm Calm - N/A   Scattered Clouds
3:53 PM 64.9 °F 42.1 °F 43% 29.97 in 10.0 mi Calm Calm - N/A   Clear
4:53 PM 63.0 °F 45.0 °F 52% 29.97 in 10.0 mi ENE 3.5 mph - N/A   Scattered Clouds
5:53 PM 62.1 °F 48.9 °F 62% 29.99 in 10.0 mi Calm Calm - N/A   Overcast
6:53 PM 60.1 °F 48.9 °F 67% 29.95 in 10.0 mi ENE 5.8 mph - 0.00 in Rain Light Rain
7:53 PM 55.9 °F 52.0 °F 87% 29.93 in 7.0 mi ESE 5.8 mph - 0.03 in Rain Rain
8:53 PM 54.0 °F 50.0 °F 86% 29.94 in 8.0 mi ESE 4.6 mph - 0.03 in Rain Rain
9:53 PM 53.1 °F 51.1 °F 93% 29.94 in 7.0 mi East 4.6 mph - 0.10 in Rain Rain
10:15 PM 53.6 °F 51.8 °F 94% 29.94 in 5.0 mi East 3.5 mph - 0.05 in Rain Light Rain
10:24 PM 53.6 °F 50.0 °F 88% 29.94 in 9.0 mi ENE 5.8 mph - 0.06 in Rain Light Rain
10:53 PM 53.1 °F 50.0 °F 89% 29.94 in 3.0 mi Calm Calm - 0.12 in Rain Heavy Rain
10:57 PM 53.6 °F 51.8 °F 94% 29.93 in 2.5 mi East 3.5 mph - 0.03 in Rain Heavy Rain
11:05 PM 51.8 °F 50.0 °F 94% 29.93 in 4.0 mi NE 6.9 mph - 0.04 in Rain Rain
11:23 PM 51.8 °F 50.0 °F 94% 29.89 in 2.5 mi Variable 6.9 mph - 0.16 in Rain Heavy Rain
11:38 PM 51.8 °F 50.0 °F 94% 29.89 in 3.0 mi NE 6.9 mph - 0.25 in Rain Heavy Rain
11:53 PM 52.0 °F 50.0 °F 93% 29.89 in 2.5 mi ESE 9.2 mph - 0.42 in Rain Rain